GFSMW_con_mlcape_057.txt.gz
CAPE
561 572 195 0 0 0 0 0 437 432 459 176 0 0 2 52 22 1 0 1 10 11 1 0 0 0 24 31 124 146 114 88 69 93 72 91 104 67 81 115 157 209 235
702 705 118 2 0 0 61 0 416 264 447 332 26 8 29 2 20 10 3 1 7 6 5 0 0 4 38 117 202 213 137 96 77 73 40 0 0 0 0 0 81 132 166
867 836 291 41 98 112 80 169 219 20 492 1051 14 6 0 0 0 2 11 7 48 57 53 139 91 144 157 151 191 160 124 66 42 86 0 0 0 0 3 4 3 0 31
871 846 600 122 306 388 167 32 64 355 975 649 2 21 40 11 0 41 106 119 131 132 106 103 124 136 180 182 154 132 113 113 37 36 54 0 0 0 0 1 2 2 0
1045 1035 774 259 796 637 459 551 943 1450 1115 324 14 165 211 144 240 194 149 114 158 112 97 90 68 66 58 81 96 99 71 40 21 0 1 0 0 0 5 2 0 1 1
1217 1177 1040 477 1425 1009 697 853 717 1522 948 131 64 373 319 392 247 124 78 142 102 72 98 99 89 74 60 81 80 71 78 96 61 20 22 4 0 0 0 1 1 2 1
1955 1667 1422 1128 1337 1024 1269 1641 745 1284 1204 587 351 326 298 328 144 91 46 129 95 69 100 120 110 82 74 66 63 30 21 5 0 0 0 39 9 0 0 0 0 2 2
2158 2133 1864 1583 1385 1354 1644 1541 1684 1457 1149 935 655 433 254 179 137 56 85 84 48 66 84 70 59 109 70 25 22 13 0 0 0 2 2 13 24 7 0 0 1 2 3
2789 2630 2171 1792 1514 1546 1644 1703 1650 1631 1138 814 588 343 210 331 132 141 89 0 1 41 61 47 115 102 10 4 10 0 0 0 0 4 9 18 36 72 29 0 0 0 0
2578 2401 1897 1778 1579 1337 1590 1581 1633 1646 1218 797 480 288 201 173 97 107 92 15 0 0 7 17 46 12 3 0 0 0 0 0 2 0 4 18 28 77 105 5 0 0 0
2352 2475 1959 1533 1435 1148 1433 1617 1631 1537 1099 671 399 298 180 107 157 100 33 0 0 0 0 0 0 0 0 0 0 0 0 0 0 0 0 0 12 24 65 4 0 0 0
2112 2224 2002 1488 1236 1206 1570 1890 1796 1456 1087 719 498 408 135 160 96 1 14 0 0 0 0 0 0 0 0 0 0 0 0 0 0 0 0 0 0 0 0 0 0 0 0
1755 1787 1826 1279 1233 1378 1860 1894 1761 1441 969 726 451 344 218 213 91 28 0 0 0 0 0 0 0 0 0 0 0 0 0 0 0 0 0 0 0 0 0 0 0 0 0
824 1498 1787 1278 1391 1440 1733 1840 1669 1235 877 698 534 419 218 190 95 39 30 5 0 0 0 0 0 0 0 0 0 0 0 0 0 0 0 0 0 0 0 0 0 1 1
104 1174 1851 1473 1462 1599 1880 1878 1541 1165 794 624 481 351 356 197 149 82 26 35 17 0 0 0 0 0 0 0 0 0 0 0 0 0 0 0 0 0 0 0 0 0 1
758 1709 1918 1643 1698 1970 2037 1783 1552 1329 692 478 439 392 520 234 211 122 82 90 37 14 0 0 0 0 0 0 0 0 0 0 0 0 0 0 0 0 0 0 0 0 0
2023 2130 2048 2133 2052 1958 1723 1628 1548 1340 674 351 373 370 625 433 252 132 80 78 79 31 1 0 0 0 0 0 0 0 0 0 0 0 0 0 0 0 0 0 0 0 0
2611 2380 2283 2181 1857 1660 1396 1175 1259 1220 983 589 389 461 573 435 260 202 158 48 50 42 25 0 0 0 0 0 0 0 0 0 0 0 0 0 0 0 0 0 0 0 0
2686 2549 2345 2069 1775 1791 1517 1412 1294 1042 881 686 534 497 668 527 316 143 77 22 8 8 42 0 0 0 0 0 0 0 0 0 0 0 0 0 0 0 0 0 0 0 0
2696 2740 2401 1856 1605 1413 1337 1524 1403 1220 1054 867 742 593 559 418 327 103 17 0 0 1 23 14 0 0 0 0 0 0 0 0 0 0 0 0 0 0 0 0 0 0 0
2450 2221 2117 1999 1489 1290 1549 1577 1330 1289 999 759 540 414 350 216 111 55 15 0 0 1 8 7 2 0 0 0 0 0 0 0 0 0 0 0 0 0 0 0 0 0 0
1934 1820 1695 1547 1289 1339 1369 1180 1026 591 502 332 230 38 0 1 30 120 113 8 0 0 38 12 24 21 0 0 0 0 0 0 0 0 0 0 0 0 0 0 0 0 0
1350 1243 1539 1524 1301 1257 1229 1138 788 579 392 222 77 11 59 91 66 100 159 93 0 0 0 3 1 24 6 0 0 0 0 0 0 0 0 0 0 0 0 0 0 0 0
938 815 941 1416 1340 1035 925 851 686 557 420 290 231 94 65 32 0 0 0 20 103 121 55 62 81 50 28 15 0 0 0 0 0 0 0 0 0 0 0 0 0 0 0
465 393 684 660 551 335 290 158 79 90 133 74 47 35 22 6 0 0 0 0 0 0 11 62 97 111 61 25 11 0 0 0 0 0 0 0 0 0 0 0 0 0 0
31 0 0 0 0 0 0 0 0 0 0 0 0 0 0 0 0 0 0 0 0 0 0 0 0 0 5 0 0 0 0 0 0 0 0 0 0 0 0 0 0 0 0

GFSMW_con_mlcape_060.txt.gz
CAPE
650 530 121 21 0 0 0 0 0 481 354 196 20 7 28 35 42 20 29 16 12 86 77 65 24 1 0 13 18 101 105 70 28 37 83 45 27 52 79 122 176 206 257
715 607 350 61 5 0 0 0 55 439 363 30 0 3 40 47 21 16 0 8 9 18 15 10 0 0 0 2 29 74 143 86 73 106 50 6 0 0 0 0 57 104 192
470 553 515 126 4 0 21 0 85 438 284 328 0 2 0 3 7 28 19 6 19 10 30 36 47 29 10 34 105 224 218 149 137 123 39 0 0 0 1 1 3 6 35
649 477 355 238 161 92 151 40 200 20 117 749 0 0 0 0 2 10 70 117 182 171 160 111 98 121 130 146 167 140 151 146 141 96 116 0 0 0 0 1 1 1 2
11 196 603 287 160 254 319 5 0 1 531 771 0 0 22 52 97 152 140 169 169 158 119 149 135 154 200 252 212 208 143 127 159 122 38 60 28 0 0 1 1 1 0
0 0 852 498 110 820 452 308 477 953 1219 543 5 134 21 106 65 103 62 70 117 114 145 141 126 104 112 150 153 134 153 163 137 115 66 42 15 0 17 2 3 1 2
0 167 1159 832 369 1159 692 624 625 963 1156 542 0 81 66 46 5 92 45 73 126 104 121 150 179 165 154 149 125 107 98 80 65 32 32 59 12 0 0 0 1 0 2
0 42 1406 1183 933 1023 834 914 981 621 1301 922 108 193 86 85 106 74 0 85 74 67 79 90 128 188 138 97 88 49 23 1 0 0 0 10 100 10 0 0 0 1 1
18 1237 1848 1697 1449 1255 1173 1384 1200 1081 1032 1046 745 368 59 57 74 4 0 32 20 18 51 32 107 128 67 55 77 19 4 0 0 0 5 4 43 59 13 0 0 0 0
756 2280 2227 1963 1635 1389 1396 1469 1458 1475 1175 915 614 437 176 96 45 26 0 0 0 3 14 29 42 27 7 0 1 0 0 0 0 0 1 12 18 78 88 10 0 0 0
2470 2539 2456 2021 1670 1454 1457 1595 1606 1504 1416 905 572 380 175 74 35 49 58 0 0 0 0 0 15 3 0 0 0 0 0 0 0 0 0 0 3 51 107 26 0 0 0
2054 2499 2233 1758 1803 1572 1273 1601 1520 1535 1352 803 473 345 161 18 77 85 17 0 0 0 0 0 0 0 0 0 0 0 0 0 0 0 0 0 0 0 18 11 0 0 0
683 2255 2295 1920 1485 1419 1359 1548 1649 1608 1206 799 554 418 127 137 104 32 3 8 0 0 0 0 0 0 0 0 0 0 0 0 0 0 0 0 0 0 0 0 0 0 0
659 1824 1913 1817 1272 1260 1486 1685 1858 1559 1037 765 539 398 281 219 127 65 14 0 1 0 0 0 0 0 0 0 0 0 0 0 0 0 0 0 0 0 0 0 0 0 0
127 1162 1449 1617 1246 1286 1574 1828 1802 1372 864 714 579 397 247 240 102 65 24 16 7 16 0 0 0 0 0 0 0 0 0 0 0 0 0 0 0 0 0 0 1 0 0
0 108 1107 1669 1312 1454 1637 1776 1736 1161 727 618 574 395 314 214 195 87 21 34 12 3 10 23 0 0 0 0 0 0 0 0 0 0 0 0 0 0 0 0 1 0 1
1 72 900 1589 1379 1540 1799 2059 1657 1157 862 520 395 337 402 389 226 120 64 42 27 10 22 0 0 0 0 0 0 0 0 0 0 0 0 0 0 0 0 0 0 0 0
196 1213 1886 1671 1461 1809 1951 1714 1449 1315 1007 620 302 265 314 434 427 287 116 63 34 6 8 1 0 0 0 0 0 0 0 0 0 0 0 0 0 0 0 0 0 0 0
873 1523 1995 1736 1800 1673 1423 1272 1246 1248 1116 902 573 304 298 380 387 371 201 109 71 10 6 3 0 0 0 0 0 0 0 0 0 0 0 0 0 0 0 0 0 0 0
737 1382 2020 1722 1611 1559 1500 1371 1265 1160 1028 821 549 300 336 412 342 127 44 23 20 2 0 0 0 0 0 0 0 0 0 0 0 0 0 0 0 0 0 0 0 0 0
842 1021 2042 2007 1843 1576 1373 1378 1279 1128 835 647 455 347 226 202 140 6 0 0 0 0 1 8 0 0 0 0 0 0 0 0 0 0 0 0 0 0 0 0 0 0 0
1482 1598 1506 1065 1018 970 1184 1233 1100 517 383 261 151 72 4 0 0 0 16 13 0 0 0 0 0 0 0 0 0 0 0 0 0 0 0 0 0 0 0 0 0 0 0
796 661 192 919 812 728 939 945 495 278 75 19 10 2 0 0 2 35 67 54 0 0 0 0 1 0 0 11 0 0 0 0 0 0 0 0 0 0 0 0 0 0 0
499 62 123 240 496 615 590 489 370 254 148 104 51 46 36 15 0 0 0 10 43 53 18 10 1 0 0 4 3 0 0 0 0 0 0 0 0 0 0 0 0 0 0
695 137 5 12 30 86 370 334 290 321 247 97 50 8 0 0 0 0 0 0 0 0 0 4 11 49 50 23 0 0 0 0 0 0 0 0 0 0 0 0 0 0 0
247 211 267 288 238 146 30 25 60 50 7 0 0 0 0 0 0 0 0 0 0 0 0 0 0 0 0 0 0 0 0 0 0 0 0 0 0 0 0 0 0 0 0

GFSMW_con_mlcape_063.txt.gz
CAPE
819 760 471 138 0 0 0 0 0 233 722 568 256 37 45 57 113 48 201 224 251 184 112 116 142 125 94 185 221 255 205 289 334 73 183 427 410 646 548 198 329 784 918
760 770 743 354 148 3 0 0 0 683 771 527 54 50 91 73 199 106 43 22 118 121 145 74 44 167 131 171 196 224 301 252 56 54 78 123 148 256 157 128 177 606 835
994 1032 816 596 232 101 0 0 0 808 765 765 3 32 33 34 96 91 37 16 30 10 45 172 171 169 130 53 161 207 194 149 97 85 139 59 32 130 83 41 51 117 171
1172 931 162 742 503 212 160 251 0 577 753 951 16 0 31 50 49 110 153 75 49 48 170 217 208 391 385 280 187 376 603 455 113 241 477 221 125 118 11 25 1 2 36
1089 691 85 834 607 353 422 210 235 393 244 984 724 0 116 154 93 289 431 451 224 175 102 6 132 216 217 180 129 220 116 134 220 217 220 263 154 100 130 5 2 1 1
1154 953 829 894 694 558 645 472 99 90 144 1128 846 0 264 187 215 232 300 395 428 354 182 118 143 154 133 189 232 272 599 629 481 552 431 297 171 180 213 101 11 4 2
129 94 762 1094 889 600 1277 749 511 721 1443 1463 740 112 295 162 36 208 258 242 391 309 304 425 194 185 219 208 251 421 517 529 459 489 435 339 242 317 334 317 8 6 2
0 190 1194 1476 1255 833 1355 1064 701 941 1585 1448 756 231 358 130 155 394 319 277 379 261 251 270 336 357 267 449 416 407 425 455 402 279 286 179 189 289 236 192 48 3 1
253 61 1361 1681 1490 1315 1374 1178 1093 1094 989 1603 1194 518 669 486 333 345 218 407 236 213 190 199 331 396 291 142 241 151 121 163 197 257 235 239 285 488 324 224 156 7 0
337 517 1811 1894 1800 1716 1604 1651 1909 1483 1416 1519 1306 1102 735 432 275 187 223 280 193 172 169 215 312 214 123 97 98 115 90 70 131 100 179 178 201 292 321 255 192 57 0
634 1914 2418 2252 2138 1940 1776 1905 2015 2028 1834 1562 1275 1031 756 598 373 232 247 232 120 107 103 102 199 84 52 25 11 41 25 13 13 34 72 96 124 184 268 285 266 0 0
1977 2774 2772 2504 2198 1940 1838 1987 2121 2247 2208 1802 1316 1030 820 571 433 314 282 73 99 73 115 142 183 109 0 0 0 1 0 0 1 6 80 67 73 28 203 163 110 0 0
1455 2943 2879 2436 2167 2003 1901 1907 2145 2186 2146 1672 1190 959 675 500 425 476 230 128 138 132 123 117 105 52 0 0 0 0 0 0 0 0 8 1 18 3 26 165 7 0 0
749 1433 2911 2690 2213 2078 1923 1859 2123 2312 2116 1673 1290 1064 657 604 607 405 299 213 139 96 132 99 96 40 0 0 0 0 0 1 1 3 0 0 1 7 1 10 4 2 1
509 863 2000 2703 2326 1974 1833 1983 2286 2368 2015 1596 1367 1154 850 806 694 432 349 231 139 147 73 48 94 24 0 0 0 0 0 0 1 3 1 1 0 0 1 3 3 4 3
612 442 1104 2100 1972 1788 1858 2131 2481 2344 1900 1527 1362 1157 893 814 697 535 397 258 133 65 23 1 20 60 14 0 0 0 0 0 0 1 0 0 0 0 0 0 0 2 3
572 202 204 1538 1911 1924 1961 2211 2475 2213 1729 1378 1333 1183 1005 821 816 752 542 367 232 102 7 8 0 2 44 0 0 0 0 0 0 0 2 0 0 0 0 0 1 0 0
258 203 416 1182 2025 2070 2102 2568 2483 2132 1739 1343 1146 1107 969 997 995 866 739 585 512 286 178 6 0 0 0 0 0 0 0 0 0 0 0 0 0 0 1 2 2 3 2
269 610 1723 2111 1989 1947 2162 2516 2403 2095 1813 1382 1093 915 975 1036 1080 877 620 521 401 271 125 28 0 0 0 0 0 0 0 0 0 0 0 0 0 0 0 0 0 0 0
465 1121 2063 2212 2087 2315 2419 2301 2152 2029 1833 1707 1409 1043 912 897 596 610 330 159 188 208 17 4 2 0 0 0 0 0 6 0 0 0 0 0 0 0 0 0 0 0 0
1539 1211 1502 2033 2176 1889 1841 1865 1705 1691 1575 1287 1043 932 869 823 741 316 231 177 141 54 41 2 1 0 0 0 0 0 0 0 0 0 0 0 0 0 0 0 0 0 0
1475 1275 1082 948 830 821 1376 1576 1717 1133 1040 955 866 688 495 255 263 187 81 139 53 12 17 7 1 1 0 0 0 0 0 0 0 0 0 0 0 0 0 0 0 0 0
1170 1193 929 424 130 165 121 447 277 311 397 445 244 130 68 2 29 31 46 28 19 3 2 0 3 3 1 1 0 0 0 0 0 0 0 0 0 0 0 0 0 0 0
936 602 181 135 0 0 2 249 133 202 124 101 89 94 77 46 50 16 28 38 1 29 28 18 0 0 0 0 0 0 0 0 0 0 0 0 0 0 0 0 0 0 0
833 300 141 82 0 24 151 192 196 195 215 174 166 163 87 36 20 1 0 0 0 0 0 0 0 0 17 35 1 0 0 0 0 0 0 0 0 0 0 0 0 0 0
716 276 18 12 16 67 29 176 205 111 158 221 155 93 26 11 5 0 0 0 0 0 0 0 0 0 0 0 0 0 0 0 0 2 2 0 1 0 0 0 0 0 0

GFSMW_con_mlcape_069.txt.gz
CAPE
1828 2164 2110 1620 1222 894 1009 1338 885 884 975 1244 990 509 239 564 566 543 677 847 574 256 230 114 594 582 173 424 876 1056 949 413 285 216 242 201 299 158 393 822 1125 1285 1356
1646 2125 2029 1302 1124 1051 976 1124 973 1024 1618 1267 587 400 541 468 684 835 715 633 653 674 670 509 154 278 152 132 269 172 190 215 320 360 626 64 151 115 592 733 844 874 1036
1563 2097 2285 1570 1293 1218 1019 1059 1040 1558 1665 1111 663 734 765 661 580 864 671 586 617 589 449 196 103 82 90 59 121 430 559 443 433 900 336 7 12 32 291 617 563 481 521
1556 2128 2293 2077 1564 1398 1228 985 1004 1579 1743 1506 326 852 901 503 788 598 592 499 374 374 490 563 243 49 46 225 57 208 575 566 470 790 457 135 39 22 130 314 418 372 437
1552 2029 2322 2417 1992 1480 1372 1060 1091 1242 1706 1562 786 688 961 816 332 336 878 864 577 383 126 6 92 65 183 714 741 795 540 571 553 583 152 85 60 42 36 29 258 144 21
1677 2011 2471 2467 1990 1615 1538 1466 1355 1384 1883 1784 1540 1288 1194 903 319 546 549 583 592 555 257 0 0 0 0 51 210 324 400 380 317 101 71 32 284 374 327 254 367 148 1
1795 2123 2624 1960 1964 1831 1812 1801 1682 1729 1753 1570 1597 1466 1069 956 458 161 421 552 429 565 557 513 436 71 138 98 250 446 438 270 352 304 285 324 344 386 390 357 386 104 1
1788 2165 2460 2024 1660 2047 2049 2104 1892 1865 1782 1590 1765 1761 1355 925 358 705 725 221 101 367 788 615 644 727 559 168 247 509 649 691 693 688 682 604 477 600 740 491 373 71 3
1686 1995 931 1620 2316 2173 2396 2376 2131 2147 2126 2092 2259 2105 1676 1247 781 866 1240 425 370 355 374 368 375 622 775 701 381 184 105 228 249 200 223 280 331 445 672 793 270 136 32
792 651 841 1682 2285 2192 2309 2311 2186 2261 2276 2303 2331 2218 1752 1552 1399 1299 972 632 635 595 349 235 235 507 535 472 563 577 319 308 458 416 472 621 518 335 515 675 534 197 188
1197 1410 1077 2211 2451 2211 2207 2111 2221 2448 2473 2417 2567 2244 1759 1645 1387 1325 929 804 817 666 507 381 575 474 394 268 322 325 282 207 305 353 300 387 561 594 554 922 371 301 326
1713 1048 787 2174 2115 2181 2122 2193 2531 2782 2630 2682 2629 2393 2069 1704 1439 1397 934 993 750 660 569 379 279 325 250 208 202 128 65 129 143 185 170 282 387 612 725 761 444 304 232
1087 1336 1926 2232 2278 2172 2065 2376 2790 2694 2706 2968 2817 2026 2111 1827 1514 1294 999 899 802 703 546 401 299 297 219 121 104 70 55 85 128 144 247 240 258 422 582 598 670 353 191
1512 2369 2637 2639 2536 2342 2260 2442 2668 2610 2530 3096 2794 2041 1953 1818 1607 1283 1048 823 828 811 731 620 417 310 253 113 81 3 1 46 62 117 130 148 176 360 452 471 503 399 141
1996 2961 3125 3189 3139 2807 2661 2611 2619 2687 2521 2822 2711 2125 2101 1921 1675 1237 1040 858 804 775 703 606 474 408 244 86 91 22 11 52 59 66 80 103 3 0 57 199 475 158 10
2322 2262 2467 3401 3609 3450 3158 2944 2784 3017 2720 2854 2730 2187 2176 1921 1693 1462 1197 1018 976 888 778 639 585 373 217 0 0 0 45 44 56 74 63 48 0 0 0 0 0 167 16
1481 2175 2272 2262 3116 3975 3602 3211 3129 3316 3083 3106 2752 2286 2271 1978 1811 1574 1213 1262 1314 1188 1112 1015 805 500 189 0 0 0 0 29 21 17 37 20 0 0 1 0 0 0 0
2652 1934 1759 2231 2069 2907 3788 3579 3437 3667 3509 3348 2852 2436 2296 2098 1948 1702 1608 1702 1699 1484 1247 1172 1018 787 269 0 0 0 0 5 5 6 18 62 52 7 8 12 9 5 2
2812 2841 1683 1658 1956 1890 3047 3670 3631 3623 3613 3410 2805 2457 2229 2081 1836 1774 1902 2013 1868 1445 1226 1036 955 732 286 0 0 0 0 7 31 38 10 4 23 0 0 27 51 5 5
2379 2837 2502 2341 1844 1633 2982 3685 3543 3230 3357 3334 2609 2349 2174 1993 1905 1962 1978 2277 1719 1253 905 821 693 632 268 0 0 0 0 7 59 36 50 0 0 0 0 15 17 14 7
1929 2130 3159 2722 3504 2840 3542 3148 3030 3176 3335 2863 2527 2374 2219 2055 1882 2240 2261 1598 1262 938 892 694 584 428 253 89 0 0 0 10 32 46 82 53 0 0 0 0 53 15 4
1121 1853 2049 2717 3503 3138 2767 2840 3221 2976 2897 2692 2599 2419 2361 2038 2132 2131 1978 1315 1076 998 682 534 513 232 414 19 0 0 0 0 10 46 40 30 0 0 0 0 0 0 0
939 1216 1678 1976 2335 2884 2677 2360 2351 2358 2609 2581 2487 2489 2175 2068 1901 1765 1254 759 702 516 648 373 310 366 186 200 0 0 0 0 0 0 0 0 0 0 0 0 0 0 0
532 753 1227 1857 2246 2398 2562 1730 1435 1396 1558 1475 1463 1394 1396 1338 1146 1182 797 599 467 352 303 319 453 625 362 272 146 8 0 0 0 0 0 0 0 0 0 0 0 0 0
678 799 832 1486 1783 2236 1750 1647 1144 1027 857 757 729 803 863 766 580 728 577 564 436 195 232 145 138 96 94 106 7 0 52 14 10 0 56 26 19 6 2 0 0 0 0
92 314 685 1284 1428 1430 1289 1198 1188 914 855 422 455 413 512 631 855 785 211 12 9 0 0 0 0 0 0 0 0 0 0 0 0 0 0 2 1 32 80 49 5 1 0

GFSMW_con_mlcape_072.txt.gz
CAPE
1708 1910 2193 2418 2171 1492 1893 1512 1311 1264 900 1163 1276 1366 1053 990 963 780 590 358 368 722 426 159 307 180 3 0 134 472 278 369 625 185 191 325 487 342 283 224 832 396 303
1956 2312 2296 2196 1500 1279 1469 1754 1408 1423 1296 1584 1312 902 699 526 717 1091 841 756 426 258 400 336 94 468 556 205 94 196 467 424 222 87 182 95 82 146 118 609 587 442 598
2124 2494 2377 1822 1552 1448 1602 1579 1431 1482 1665 1919 1104 770 667 849 976 968 1016 693 657 302 258 325 521 271 285 72 14 37 44 11 75 272 118 94 0 12 33 61 377 422 302
2150 2661 2510 1875 1707 1698 1468 1676 1582 1547 1942 1878 895 925 964 508 588 650 782 720 456 436 256 339 288 200 75 56 17 3 19 32 49 173 167 234 45 0 4 13 5 272 312
1697 2581 2840 2377 1921 1815 1655 1534 1594 1847 2130 1955 1318 954 784 715 495 497 693 822 661 460 439 267 365 191 86 131 160 182 249 128 152 177 227 283 140 0 5 1 0 10 15
1632 2496 2686 2795 2390 1828 1803 1517 1615 1495 2211 2097 1427 1301 1196 1024 716 618 396 701 806 591 339 160 42 67 21 5 13 22 64 172 255 213 135 51 44 21 27 58 43 61 2
1728 2296 2747 2946 2761 1920 1929 1817 1778 1642 2137 2108 1755 1586 1318 1286 949 295 226 480 175 669 433 69 0 0 0 4 9 103 104 61 63 44 28 35 16 0 68 147 171 103 1
1872 2325 3034 2807 2436 2067 2121 2106 2206 2173 2056 2050 1859 1977 1658 1305 1162 381 774 617 559 204 490 575 587 521 424 232 137 376 284 302 315 445 518 324 436 320 232 178 140 92 2
1837 2240 2951 2619 2203 2212 2330 2348 2336 2343 2193 2072 2100 2157 1983 1540 1091 1126 747 995 536 553 660 573 478 373 882 524 158 59 88 38 96 139 95 112 143 163 192 188 209 108 4
1884 2280 2217 1542 2001 2406 2489 2599 2582 2555 2400 2383 2274 2459 2128 1760 1531 1619 1252 1013 764 758 586 324 390 424 793 340 273 413 219 133 122 142 167 328 352 468 378 408 389 226 91
1613 1615 1019 1887 2315 2187 2441 2582 2606 2672 2712 2627 2271 2388 2043 1944 1814 1628 1289 914 913 824 577 358 574 634 489 332 237 196 174 239 225 242 253 239 316 296 460 301 247 238 141
1092 1206 1308 1924 2255 2134 2292 2422 2538 2797 2797 2572 2453 2271 2035 1994 1888 1360 1353 1094 1003 758 738 611 384 397 212 197 177 119 140 172 187 128 181 145 284 362 277 275 255 271 170
1612 1387 1004 2362 2215 2217 2375 2427 2629 2969 2901 2741 2510 2430 2051 2076 1758 1386 1266 1284 932 950 779 597 468 363 335 157 167 136 109 157 161 127 78 217 239 267 333 356 433 218 91
1517 1221 1869 2366 2384 2540 2476 2460 2774 2768 2846 2637 2692 2670 2163 2090 1809 1547 1348 1179 1062 1039 616 669 488 365 343 284 146 64 9 35 132 12 11 130 235 227 428 381 396 244 80
1432 2532 2857 2981 2832 2773 2580 2550 2802 2696 2979 3021 2573 2790 2342 2025 1833 1664 1446 1063 935 853 867 664 570 440 302 26 63 60 34 32 116 91 11 116 2 0 39 225 311 236 43
2229 2930 3349 3441 3324 3089 2813 2893 2845 2854 3405 3210 2563 2811 2526 2047 1797 1550 1415 1134 971 977 903 692 593 530 376 0 0 0 4 34 83 68 87 25 0 0 0 9 179 196 66
1837 2247 2430 2829 3982 3776 3372 3238 3124 3167 3099 3276 2661 2659 2372 2322 1757 1613 1422 1269 1089 1248 1278 936 987 721 642 13 0 0 0 0 14 65 103 52 85 15 7 0 7 53 52
2847 2805 2039 2053 2601 3329 4091 3691 3538 3268 3429 3390 2767 2674 2508 2204 1653 1577 1612 1282 1432 1604 1341 1098 1058 833 361 18 0 0 0 0 1 16 52 71 53 45 111 58 20 3 1
2695 2995 2902 1966 1921 2308 2468 3847 3685 3389 3437 3384 2915 2640 2494 2111 1835 1875 1778 1544 1674 1597 1181 1070 844 1055 470 13 0 0 0 0 0 10 44 60 79 24 1 52 77 6 0
2054 2349 3034 2787 2653 2949 2128 1898 3753 3696 3483 3183 2665 2447 2360 2257 2101 1872 1801 1908 1595 1479 1198 1143 893 674 404 8 0 0 0 0 2 5 48 30 0 12 0 0 82 104 61
1224 1805 1993 2778 3250 3519 3688 2809 2765 3492 3523 3060 2611 1956 1976 2217 1928 1629 1738 1733 1641 1350 1309 920 807 741 494 37 0 0 0 0 0 4 0 31 0 0 0 0 8 7 0
1007 1169 1444 1779 2033 2410 2787 2806 2563 2532 2766 2413 2118 1551 1550 1993 1731 1461 1596 1763 1397 1284 1000 751 608 445 375 55 0 0 0 0 0 0 0 0 0 0 0 0 0 0 0
625 736 837 995 1599 2125 2507 2592 2246 1234 693 287 0 374 1017 1148 1662 1443 1385 1364 1258 1095 1018 627 321 527 570 164 0 0 0 0 0 0 0 0 0 0 0 0 0 0 0
551 549 827 1265 1348 1633 2266 2006 1424 792 269 4 1 347 700 1246 1427 1286 1140 846 726 587 587 391 344 440 464 499 45 0 0 0 0 0 0 0 0 0 0 0 0 0 0
3 2 1 95 640 1012 1851 1574 1401 972 39 166 347 107 893 936 1032 843 602 732 107 429 533 349 206 153 105 45 24 50 20 0 0 0 13 21 1 0 0 0 0 0 0
2 2 2 2 2 232 696 707 1263 1126 854 654 223 654 838 626 626 549 223 0 8 0 0 0 2 0 0 0 0 0 0 0 0 0 0 9 13 9 13 32 18 1 0

GFSMW_con_mlcape_075.txt.gz
CAPE
1601 1905 2065 2145 1812 1655 1355 993 1090 1093 1217 1002 1036 968 831 729 713 622 686 595 400 400 320 152 288 272 125 41 112 238 199 339 359 167 123 116 280 96 128 234 233 184 344
1706 2052 2245 2189 2024 1804 1542 1109 1093 1151 1006 699 1005 1274 1236 996 987 953 747 719 569 335 281 178 117 115 66 12 0 5 115 175 134 54 40 36 12 90 184 169 153 213 380
1867 2077 2326 2090 1606 1566 1607 1324 1349 1127 651 1130 1232 883 555 718 514 483 725 756 619 406 189 138 98 53 141 72 54 2 5 0 18 76 48 18 0 6 39 16 8 107 194
2019 2211 2166 1920 1499 1281 1535 1570 1416 1178 1006 1650 1367 653 8 341 513 625 879 616 540 340 175 170 103 220 179 122 55 25 17 21 4 23 44 43 14 0 0 16 0 46 25
2164 2231 1981 1754 1585 1452 1493 1480 1361 1166 1190 1799 988 635 771 472 407 623 565 790 496 397 299 203 142 182 228 108 41 39 18 24 15 4 6 33 76 27 0 0 0 0 2
2466 2354 2048 1765 1660 1616 1567 1554 1398 1279 1892 1774 1441 1267 862 659 550 462 398 661 632 425 446 85 107 177 172 65 74 59 24 63 102 112 97 65 66 24 3 1 9 17 3
2518 2473 2296 1998 1837 1837 1611 1494 1438 1230 1919 1924 1263 1243 1062 1029 807 510 90 760 332 237 207 119 0 0 0 0 1 11 48 23 0 0 56 64 42 33 5 8 36 118 17
2600 2678 2569 2357 2125 1920 1724 1634 1500 1340 1449 2166 1708 1323 1402 1206 986 410 379 753 357 292 510 280 1 40 0 0 35 44 18 23 71 46 69 45 20 57 18 38 93 92 10
2557 2664 2797 2656 2393 1906 1864 1835 1714 1665 1492 2110 1753 1860 1629 1267 1260 702 781 981 622 359 457 351 470 400 456 575 142 74 88 63 37 38 54 55 66 127 126 96 53 44 8
2663 2758 2799 2713 2368 2000 1991 2178 2087 2045 1754 2046 1838 1894 1852 1516 1320 1086 772 876 750 775 580 539 539 351 247 433 277 166 58 0 0 7 0 0 84 95 197 231 115 106 36
2357 2832 2803 2433 2215 2157 2145 2380 2203 2211 1998 1968 2053 2090 1941 1722 1434 1425 1115 1148 803 542 422 297 385 409 230 180 57 90 102 141 113 168 203 199 244 193 153 221 174 200 155
2241 2481 2337 2117 2186 2264 2265 2582 2391 2407 2293 2305 2408 2283 2027 1802 1673 1376 1553 824 860 747 490 308 245 277 339 216 200 45 127 121 127 129 137 110 193 158 144 163 173 178 144
2042 1800 1677 1984 2160 2154 2355 2648 2500 2436 2598 2558 2566 2119 1892 1754 1808 1527 1277 889 887 619 605 440 294 83 97 147 157 7 2 24 77 100 43 1 132 265 220 242 178 144 81
1032 1109 1429 1911 2141 2048 2315 2459 2496 2512 2537 2400 2461 2202 1898 1848 1695 1595 1434 1052 834 787 675 472 345 146 95 91 100 61 0 0 34 56 4 20 135 107 139 177 242 98 30
1359 1380 2085 2220 2382 2231 2357 2273 2289 2602 2658 2499 2425 2265 2043 1970 1849 1462 1527 1149 859 880 640 411 309 142 62 22 71 24 0 0 5 17 26 42 2 0 0 93 222 141 14
2639 3154 2492 2572 2626 2407 2309 2257 2264 2488 2614 2518 2392 2486 2319 1989 1866 1644 1448 1192 856 778 709 494 360 247 31 0 0 0 0 6 30 1 23 2 0 0 0 95 225 112 0
2455 1910 984 2710 3040 2617 2272 2124 2294 2360 2676 2756 2647 2523 2376 1923 1576 1512 1518 1189 821 793 692 599 409 319 134 0 0 0 0 0 7 23 3 2 33 0 0 10 109 141 37
2271 2257 2056 2287 2000 1867 2900 2329 2463 2431 2930 3086 2864 2385 2358 1694 1478 1333 1043 948 905 854 860 819 756 552 140 11 0 0 0 0 0 0 2 3 3 51 4 0 0 8 55
2134 1937 1649 2366 2771 2916 2922 3258 3113 2981 3091 3129 2649 2554 2331 1970 1424 1119 986 934 1010 1029 1145 1010 906 606 190 16 1 0 0 0 0 1 1 7 2 0 0 35 1 0 0
1191 1429 1381 1425 1919 2012 2281 2663 2845 2832 3414 3270 3068 2772 2180 1715 1180 821 957 1095 1105 1120 1049 874 756 625 295 50 2 0 0 0 0 0 0 0 0 0 0 0 26 28 10
712 696 780 1596 1099 1060 1706 2200 2479 2340 2230 2747 2239 322 0 0 77 569 1103 1039 1186 1115 983 924 803 460 235 98 11 0 0 0 0 0 0 0 1 0 0 0 15 4 0
572 483 609 870 1308 1557 1774 1984 2032 1663 1263 714 408 1 0 1 0 15 91 819 845 793 859 894 590 574 276 135 9 0 0 0 0 0 0 0 0 0 0 0 0 0 0
48 1 9 152 397 732 742 1763 1380 1044 805 308 3 0 0 0 0 0 0 590 681 704 751 476 364 478 309 97 25 2 0 0 0 0 0 0 0 0 0 0 0 0 0
0 0 0 0 0 46 199 1471 1224 709 392 42 0 0 0 0 0 0 1 419 470 453 423 527 463 602 429 158 22 1 0 0 0 0 0 0 0 0 0 0 0 0 0
0 0 0 0 1 1 2 1 311 696 166 0 0 0 0 0 162 415 331 392 187 312 487 464 418 350 361 150 70 27 9 0 0 0 1 0 0 0 0 0 0 0 0
0 0 0 0 1 0 0 0 1 54 511 293 0 0 0 11 345 143 128 3 22 39 138 36 40 30 110 3 11 11 2 0 0 0 0 2 1 0 4 1 4 0 3